Location: Bailleul
(50.3375°N, 2.8513°E)
Time: 21:01:42
(UTC+00:00)

Sich 1 - Pass Details

Date: 19 April 2021
Orbit: 593 x 625 km, 82.5° (Epoch: 18 May)

Event Time Altitude Azimuth Distance (km) Brightness Sun altitude
Rises 22:29:35 0° 351° (N) 2,849 7.7 -25.9°
Reaches altitude 10° 22:31:49 10° 355° (N) 1,941 6.5 -26.0°
Enters shadow 22:35:18 53° 24° (NNE) 734 3.5 -26.2°
